Location: Amsterdam
(30.7274°N, 84.4357°W)
Time: 02:07:08
(UTC+00:00)

Transit 2A Rocket - Pass Details

Date: 24 February 2026
Orbit: 583 x 900 km, 66.7° (Epoch: 8 March)

Event Time Altitude Azimuth Distance (km) Brightness Sun altitude
Rises 19:04:04 0° 194° (SSW) 3,426 9.1 46.3°
Reaches altitude 10° 19:06:31 10° 190° (S) 2,520 8.6 46.1°
Maximum altitude 19:12:20 61° 111° (ESE) 1,013 6.3 45.5°
Drops below altitude 10° 19:18:15 10° 33° (NNE) 2,571 7.4 44.9°
Sets 19:20:47 0° 30° (NNE) 3,501 8.0 44.6°
